Weather History for Fort Morgan, CO

Change the Weather History Date:

Saturday, January 19, 2013

  Actual Average (KAKO) Record (KAKO)
Temperature  
Mean Temperature 40 °F 29 °F  
Max Temperature 58 °F 40 °F 62 °F (2014)
Min Temperature 22 °F 17 °F -18 °F (1943)
Degree Days  
Heating Degree Days 25    
Month to date heating degree days  
Cooling Degree Days 0    
Month to date cooling degree days  
Moisture  
Dew Point 9 °F    
Average Humidity 32    
Maximum Humidity 59    
Minimum Humidity 12    
Precipitation  
Precipitation 0.00 in 0.01 in 1.04 in (1988)
Month to date precipitation 0.16  
Year to date precipitation 0.16  
Sea Level Pressure  
Sea Level Pressure 30.16 in    
Wind  
Wind Speed 10 mph (NW)    
Max Wind Speed 20 mph    
Max Gust Speed 29 mph    
Visibility 10 miles    
Events      
T = Trace of Precipitation, MM = Missing Value Source: NWS Daily Summary

Daily Weather History Graph

Daily Weather History Graph

Search for Another Location

Airport:

Trip Planner

Search our weather history database for the weather conditions in past years. The results will help you decide how hot, cold, wet, or windy it might be!

Date:

Astronomy

Jan. 19, 2013 Rise Set
Actual Time 7:14 AM MST 4:58 PM MST
Civil Twilight 6:44 AM MST 5:28 PM MST
Nautical Twilight 6:11 AM MST 6:01 PM MST
Astronomical Twilight 5:38 AM MST 6:33 PM MST
Moon 11:26 AM MST 12:50 AM MST
Length of Visible Light 10h 43m
Length of Day
9h 44m
First Quarter, 58% of the Moon is Illuminated
Jan 19
First Quarter
Jan 26
Full
Feb 3
Last Quarter
Feb 10
New
Feb 17
First Quarter

Hourly Weather History & Observations

Time (MST) Temp. Windchill Dew Point Humidity Pressure Visibility Wind Dir Wind Speed Gust Speed Precip Events Conditions
12:15 AM 28.6 °F 19.3 °F 10.6 °F 47% 30.04 in 10.0 mi West 10.4 mph - N/A   Clear
12:35 AM 29.8 °F 22.2 °F 10.9 °F 45% 30.05 in 10.0 mi WNW 8.1 mph - N/A   Clear
12:55 AM 27.3 °F 19.1 °F 9.3 °F 47% 30.06 in 10.0 mi WNW 8.1 mph - N/A   Clear
1:15 AM 26.8 °F 18.5 °F 9.7 °F 49% 30.05 in 10.0 mi West 8.1 mph - N/A   Clear
1:35 AM 25.7 °F 17.1 °F 12.4 °F 57% 30.06 in 10.0 mi WNW 8.1 mph - N/A   Clear
1:55 AM 26.1 °F 17.6 °F 11.7 °F 55% 30.07 in 10.0 mi West 8.1 mph - N/A   Clear
2:15 AM 28.0 °F 20.0 °F 12.6 °F 52% 30.07 in 10.0 mi West 8.1 mph - N/A   Clear
2:35 AM 26.8 °F 19.3 °F 12.2 °F 54% 30.07 in 10.0 mi West 6.9 mph - N/A   Clear
2:55 AM 23.4 °F 14.3 °F 10.8 °F 59% 30.07 in 10.0 mi West 8.1 mph - N/A   Clear
3:15 AM 23.7 °F 14.0 °F 9.9 °F 56% 30.08 in 10.0 mi West 9.2 mph - N/A   Clear
3:35 AM 25.3 °F 18.5 °F 9.5 °F 51% 30.09 in 10.0 mi West 5.8 mph - N/A   Clear
3:55 AM 23.9 °F 14.2 °F 9.0 °F 53% 30.09 in 10.0 mi WNW 9.2 mph - N/A   Clear
4:15 AM 29.7 °F 22.0 °F 8.6 °F 41% 30.09 in 10.0 mi WNW 8.1 mph - N/A   Clear
4:35 AM 22.8 °F 14.5 °F 8.1 °F 53% 30.09 in 10.0 mi West 6.9 mph - N/A   Clear
4:55 AM 24.1 °F 18.2 °F 8.1 °F 51% 30.11 in 10.0 mi West 4.6 mph - N/A   Clear
6:15 AM 40.3 °F 31.0 °F 6.8 °F 25% 30.14 in 10.0 mi NW 19.6 mph 27.6 mph N/A   Clear
6:55 AM 37.4 °F 27.2 °F 7.2 °F 29% 30.17 in 10.0 mi NNW 19.6 mph - N/A   Clear
7:15 AM 36.5 °F 26.3 °F 6.8 °F 29% 30.17 in 10.0 mi NNW 18.4 mph - N/A   Clear
7:35 AM 36.5 °F 26.0 °F 7.3 °F 30% 30.18 in 10.0 mi NNW 19.6 mph - N/A   Clear
8:35 AM 40.8 °F 32.6 °F 7.9 °F 26% 30.21 in 10.0 mi North 16.1 mph - N/A   Clear
8:55 AM 42.8 °F 34.8 °F 8.2 °F 24% 30.21 in 10.0 mi North 17.3 mph - N/A   Clear
9:15 AM 45.0 °F 38.5 °F 9.0 °F 23% 30.21 in 10.0 mi North 13.8 mph - N/A   Clear
9:35 AM 48.4 °F - 9.0 °F 20% 30.22 in 10.0 mi NNW 17.3 mph - N/A   Clear
9:55 AM 53.4 °F - 5.7 °F 15% 30.23 in 10.0 mi NNW 18.4 mph 23.0 mph N/A   Clear
10:15 AM 54.0 °F - 5.2 °F 14% 30.23 in 10.0 mi NNW 18.4 mph 28.8 mph N/A   Clear
10:35 AM 55.0 °F - 5.0 °F 13% 30.23 in 10.0 mi NW 17.3 mph 23.0 mph N/A   Clear
10:55 AM 55.6 °F - 4.6 °F 13% 30.22 in 10.0 mi NNW 19.6 mph 24.2 mph N/A   Clear
11:15 AM 56.7 °F - 4.6 °F 12% 30.21 in 10.0 mi NNW 15.0 mph - N/A   Clear
11:35 AM 57.0 °F - 4.1 °F 12% 30.20 in 10.0 mi NNW 13.8 mph - N/A   Clear
11:55 AM 57.4 °F - 4.1 °F 12% 30.19 in 10.0 mi West 4.6 mph - N/A   Clear
12:15 PM 58.1 °F - 7.2 °F 13% 30.19 in 10.0 mi SSW 8.1 mph - N/A   Clear
12:55 PM 58.3 °F - 5.9 °F 12% 30.18 in 10.0 mi WSW 6.9 mph - N/A   Clear
1:15 PM 58.1 °F - 4.8 °F 12% 30.17 in 10.0 mi West 5.8 mph - N/A   Clear
1:35 PM 58.6 °F - 5.2 °F 12% 30.16 in 10.0 mi SW 9.2 mph - N/A   Clear
1:55 PM 58.8 °F - 5.2 °F 12% 30.16 in 10.0 mi SW 4.6 mph - N/A   Clear
2:15 PM 58.8 °F - 5.5 °F 12% 30.16 in 10.0 mi SW 5.8 mph - N/A   Clear
2:35 PM 57.2 °F - 7.0 °F 13% 30.16 in 10.0 mi SSW 10.4 mph - N/A   Clear
2:55 PM 56.7 °F - 7.5 °F 14% 30.16 in 10.0 mi SSW 8.1 mph - N/A   Clear
3:15 PM 56.3 °F - 7.7 °F 14% 30.17 in 10.0 mi South 8.1 mph - N/A   Clear
3:35 PM 55.8 °F - 7.3 °F 14% 30.16 in 10.0 mi SSW 8.1 mph - N/A   Clear
3:55 PM 55.0 °F - 7.5 °F 15% 30.16 in 10.0 mi SSW 5.8 mph - N/A   Clear
4:15 PM 51.8 °F - 6.8 °F 16% 30.16 in 10.0 mi South 5.8 mph - N/A   Clear
4:35 PM 49.1 °F - 7.2 °F 18% 30.16 in 10.0 mi SSE 5.8 mph - N/A   Clear
4:55 PM 45.1 °F - 8.6 °F 23% 30.16 in 10.0 mi Calm Calm - N/A   Clear
5:15 PM 43.0 °F - 9.7 °F 26% 30.16 in 10.0 mi Calm Calm - N/A   Clear
5:35 PM 42.3 °F - 10.6 °F 27% 30.17 in 10.0 mi Calm Calm - N/A   Clear
5:55 PM 43.3 °F - 11.1 °F 27% 30.17 in 10.0 mi Calm Calm - N/A   Clear
6:15 PM 36.3 °F 31.6 °F 9.3 °F 33% 30.18 in 10.0 mi East 5.8 mph - N/A   Clear
6:35 PM 36.7 °F 30.5 °F 10.8 °F 34% 30.19 in 10.0 mi NE 8.1 mph - N/A   Clear
6:55 PM 35.1 °F 27.4 °F 10.6 °F 36% 30.20 in 10.0 mi NNE 10.4 mph - N/A   Clear
7:15 PM 35.2 °F 28.8 °F 10.6 °F 36% 30.21 in 10.0 mi NE 8.1 mph - N/A   Clear
7:35 PM 34.7 °F 28.1 °F 10.6 °F 37% 30.21 in 10.0 mi ENE 8.1 mph - N/A   Clear
7:55 PM 34.5 °F 26.7 °F 11.3 °F 38% 30.21 in 10.0 mi ENE 10.4 mph - N/A   Clear
8:15 PM 31.8 °F 22.8 °F 11.7 °F 43% 30.20 in 10.0 mi East 11.5 mph - N/A   Clear
8:35 PM 29.1 °F 20.0 °F 11.3 °F 47% 30.19 in 10.0 mi ENE 10.4 mph - N/A   Clear
8:55 PM 29.1 °F 19.4 °F 11.3 °F 47% 30.18 in 10.0 mi NE 11.5 mph - N/A   Clear
9:15 PM 29.8 °F 19.8 °F 11.5 °F 46% 30.18 in 10.0 mi NE 12.7 mph - N/A   Clear
9:35 PM 29.5 °F 21.1 °F 11.3 °F 47% 30.18 in 10.0 mi NE 9.2 mph - N/A   Clear
9:55 PM 30.0 °F 21.7 °F 12.2 °F 48% 30.18 in 10.0 mi NE 9.2 mph - N/A   Clear
10:15 PM 30.2 °F 20.2 °F 10.9 °F 45% 30.18 in 10.0 mi NNE 12.7 mph - N/A   Clear
10:35 PM 34.0 °F 25.0 °F 9.0 °F 35% 30.17 in 10.0 mi North 12.7 mph 17.3 mph N/A   Clear
10:55 PM 31.3 °F 23.9 °F 8.6 °F 39% 30.17 in 10.0 mi ENE 8.1 mph - N/A   Clear
11:15 PM 30.6 °F 22.4 °F 8.8 °F 40% 30.17 in 10.0 mi ENE 9.2 mph - N/A   Clear
11:35 PM 27.1 °F 18.2 °F 9.3 °F 47% 30.16 in 10.0 mi NE 9.2 mph - N/A   Clear
11:55 PM 24.6 °F 14.4 °F 9.9 °F 54% 30.14 in 10.0 mi NNE 10.4 mph - N/A   Clear